| time (UTC) | temp C | wind direction | speed KPH | gust KPH | rain 1hr cm | rain 24hr cm | rain mn cm | humidity % | barometer mb |
| 20260509004505 | 16 | 269 | 0.0 | 1.6 | 0.00 | 0.00 | 0.00 | 77 | 1014.5 |
| 20260509003004 | 16 | 277 | 0.0 | 1.6 | 0.00 | 0.00 | 0.00 | 76 | 1014.4 |
| 20260509001525 | 17 | 243 | 0.0 | 6.4 | 0.00 | 0.00 | 0.00 | 75 | 1014.3 |
| 20260509000026 | 16 | 112 | 0.0 | 1.6 | 0.00 | 0.00 | 0.00 | 77 | 1014.3 |
| 20260508234505 | 16 | 288 | 0.0 | 1.6 | 0.00 | 0.00 | 0.00 | 75 | 1014.0 |
| 20260508233005 | 17 | 54 | 0.0 | 1.6 | 0.00 | 0.00 | 0.00 | 73 | 1014.1 |
| 20260508231505 | 17 | 57 | 0.0 | 1.6 | 0.00 | 0.00 | 0.00 | 72 | 1013.9 |
| 20260508230005 | 17 | 0 | 0.0 | 0.0 | 0.00 | 0.00 | 0.00 | 67 | 1013.7 |
| 20260508224505 | 18 | 63 | 0.0 | 1.6 | 0.00 | 0.00 | 0.00 | 66 | 1013.7 |
| 20260508223004 | 18 | 69 | 0.0 | 3.2 | 0.00 | 0.00 | 0.00 | 67 | 1013.5 |
| 20260508221525 | 18 | 65 | 0.0 | 4.8 | 0.00 | 0.00 | 0.00 | 63 | 1013.6 |
| 20260508220006 | 18 | 54 | 0.0 | 1.6 | 0.00 | 0.00 | 0.00 | 62 | 1013.9 |
| 20260508214505 | 18 | 51 | 0.0 | 3.2 | 0.00 | 0.00 | 0.00 | 60 | 1014.2 |
| 20260508213026 | 18 | 46 | 0.0 | 1.6 | 0.00 | 0.00 | 0.00 | 61 | 1014.1 |
| 20260508211504 | 20 | 270 | 1.6 | 4.8 | 0.00 | 0.00 | 0.00 | 59 | 1013.9 |
| 20260508210025 | 20 | 280 | 0.0 | 4.8 | 0.00 | 0.03 | 0.00 | 53 | 1013.9 |
| 20260508204505 | 20 | 276 | 0.0 | 3.2 | 0.00 | 0.03 | 0.00 | 55 | 1013.9 |
| 20260508203004 | 20 | 293 | 0.0 | 4.8 | 0.00 | 0.05 | 0.00 | 53 | 1014.1 |
| 20260508201504 | 21 | 265 | 0.0 | 6.4 | 0.00 | 0.08 | 0.00 | 52 | 1014.2 |
| 20260508200004 | 20 | 335 | 0.0 | 1.6 | 0.00 | 0.10 | 0.00 | 58 | 1014.4 |
| 20260508194526 | 20 | 282 | 0.0 | 8.0 | 0.00 | 0.10 | 0.00 | 59 | 1014.7 |
| 20260508193005 | 20 | 272 | 0.0 | 14.5 | 0.00 | 0.10 | 0.00 | 62 | 1014.9 |
| 20260508191504 | 20 | 286 | 1.6 | 4.8 | 0.00 | 0.10 | 0.00 | 59 | 1015.2 |
| 20260508190004 | 20 | 311 | 1.6 | 6.4 | 0.00 | 0.13 | 0.00 | 58 | 1015.3 |
| 20260508184504 | 20 | 30 | 0.0 | 4.8 | 0.00 | 0.15 | 0.00 | 61 | 1015.5 |
| 20260508183005 | 20 | 279 | 1.6 | 8.0 | 0.00 | 0.15 | 0.00 | 64 | 1015.5 |
| 20260508181505 | 19 | 268 | 1.6 | 9.7 | 0.00 | 0.15 | 0.00 | 60 | 1015.4 |
| 20260508180004 | 19 | 277 | 1.6 | 9.7 | 0.00 | 0.15 | 0.00 | 58 | 1015.6 |
| 20260508174505 | 20 | 273 | 1.6 | 4.8 | 0.00 | 0.15 | 0.00 | 63 | 1015.6 |
| 20260508173004 | 19 | 272 | 3.2 | 11.3 | 0.00 | 0.18 | 0.00 | 61 | 1015.8 |
| 20260508171505 | 20 | 272 | 1.6 | 9.7 | 0.00 | 0.23 | 0.00 | 63 | 1015.8 |
| 20260508170004 | 19 | 303 | 0.0 | 11.3 | 0.00 | 0.30 | 0.00 | 66 | 1016.0 |
| 20260508164504 | 19 | 51 | 0.0 | 1.6 | 0.00 | 0.43 | 0.00 | 62 | 1016.1 |
| 20260508163004 | 19 | 96 | 0.0 | 3.2 | 0.00 | 0.66 | 0.00 | 62 | 1016.3 |
| 20260508161504 | 20 | 102 | 0.0 | 1.6 | 0.00 | 1.07 | 0.00 | 62 | 1016.4 |
| 20260508160025 | 19 | 70 | 1.6 | 4.8 | 0.00 | 1.17 | 0.00 | 62 | 1016.5 |
| 20260508154525 | 18 | 108 | 0.0 | 3.2 | 0.00 | 1.24 | 0.00 | 65 | 1016.5 |
| 20260508153004 | 18 | 75 | 0.0 | 3.2 | 0.00 | 1.35 | 0.00 | 69 | 1016.5 |
| 20260508151504 | 17 | 65 | 1.6 | 8.0 | 0.00 | 1.35 | 0.00 | 69 | 1016.5 |
| 20260508150004 | 17 | 74 | 1.6 | 6.4 | 0.00 | 1.35 | 0.00 | 70 | 1016.3 |
| 20260508144504 | 17 | 70 | 1.6 | 3.2 | 0.00 | 1.35 | 0.00 | 71 | 1016.3 |
| 20260508143004 | 16 | 67 | 1.6 | 9.7 | 0.00 | 1.35 | 0.00 | 71 | 1016.4 |
| 20260508141504 | 16 | 64 | 1.6 | 6.4 | 0.00 | 1.35 | 0.00 | 73 | 1016.3 |
| 20260508140024 | 16 | 74 | 1.6 | 4.8 | 0.00 | 1.35 | 0.00 | 75 | 1016.1 |
| 20260508134504 | 15 | 84 | 1.6 | 4.8 | 0.00 | 1.35 | 0.00 | 79 | 1016.0 |
| 20260508133004 | 15 | 69 | 0.0 | 9.7 | 0.00 | 1.35 | 0.00 | 80 | 1015.9 |
| 20260508131504 | 14 | 90 | 0.0 | 3.2 | 0.00 | 1.35 | 0.00 | 84 | 1015.8 |
| 20260508130003 | 13 | 81 | 0.0 | 3.2 | 0.00 | 1.35 | 0.00 | 90 | 1015.7 |
| 20260508124503 | 12 | 103 | 0.0 | 6.4 | 0.00 | 1.35 | 0.00 | 96 | 1015.4 |
| 20260508123027 | 12 | 146 | 0.0 | 3.2 | 0.00 | 1.35 | 0.00 | 98 | 1015.4 |
| 20260508121525 | 11 | 115 | 0.0 | 4.8 | 0.00 | 1.37 | 0.00 | 98 | 1015.2 |
| 20260508120005 | 11 | 136 | 0.0 | 1.6 | 0.00 | 1.40 | 0.00 | 98 | 1015.1 |
| 20260508114503 | 10 | 115 | 0.0 | 1.6 | 0.00 | 1.40 | 0.00 | 98 | 1014.9 |
| 20260508113004 | 10 | 0 | 0.0 | 0.0 | 0.00 | 1.40 | 0.00 | 98 | 1014.7 |
| 20260508111504 | 9 | 0 | 0.0 | 0.0 | 0.00 | 1.40 | 0.00 | 98 | 1014.6 |
| 20260508110004 | 8 | 0 | 0.0 | 0.0 | 0.00 | 1.40 | 0.00 | 97 | 1014.3 |
| 20260508104503 | 8 | 0 | 0.0 | 0.0 | 0.00 | 1.40 | 0.00 | 97 | 1013.9 |
| 20260508103004 | 8 | 0 | 0.0 | 0.0 | 0.00 | 1.42 | 0.00 | 97 | 1013.9 |
| 20260508101504 | 8 | 0 | 0.0 | 0.0 | 0.00 | 1.42 | 0.00 | 97 | 1013.7 |
| 20260508100004 | 8 | 0 | 0.0 | 0.0 | 0.00 | 1.42 | 0.00 | 97 | 1013.6 |
| 20260508094503 | 8 | 0 | 0.0 | 0.0 | 0.00 | 1.42 | 0.00 | 97 | 1013.5 |
| 20260508093003 | 8 | 0 | 0.0 | 0.0 | 0.00 | 1.42 | 0.00 | 97 | 1013.2 |
| 20260508091504 | 8 | 0 | 0.0 | 0.0 | 0.00 | 1.42 | 0.00 | 97 | 1013.1 |
| 20260508090004 | 9 | 0 | 0.0 | 0.0 | 0.00 | 1.42 | 0.00 | 97 | 1013.1 |
| 20260508084503 | 9 | 0 | 0.0 | 0.0 | 0.00 | 1.42 | 0.00 | 97 | 1012.8 |
| 20260508083004 | 9 | 130 | 0.0 | 1.6 | 0.00 | 1.42 | 0.00 | 97 | 1012.7 |
| 20260508081504 | 9 | 0 | 0.0 | 0.0 | 0.00 | 1.42 | 0.00 | 97 | 1012.7 |
| 20260508080025 | 10 | 0 | 0.0 | 0.0 | 0.00 | 1.42 | 0.00 | 96 | 1012.6 |
| 20260508074505 | 10 | 0 | 0.0 | 0.0 | 0.00 | 1.45 | 0.00 | 96 | 1012.4 |
| 20260508073005 | 10 | 127 | 0.0 | 1.6 | 0.00 | 1.45 | 0.00 | 97 | 1012.4 |
| 20260508071505 | 10 | 117 | 0.0 | 1.6 | 0.00 | 1.47 | 0.00 | 97 | 1012.6 |
| 20260508070005 | 10 | 0 | 0.0 | 0.0 | 0.00 | 1.50 | 0.00 | 97 | 1012.4 |
| 20260508064506 | 10 | 0 | 0.0 | 0.0 | 0.00 | 1.57 | 0.00 | 96 | 1012.1 |
| 20260508063005 | 10 | 119 | 0.0 | 3.2 | 0.00 | 1.57 | 0.00 | 97 | 1012.1 |
| 20260508061505 | 10 | 143 | 0.0 | 1.6 | 0.00 | 1.57 | 0.00 | 96 | 1011.9 |
| 20260508060005 | 10 | 0 | 0.0 | 0.0 | 0.00 | 1.57 | 0.00 | 96 | 1011.8 |
| 20260508054505 | 10 | 0 | 0.0 | 0.0 | 0.00 | 1.57 | 0.00 | 96 | 1011.7 |
| 20260508053005 | 10 | 0 | 0.0 | 0.0 | 0.00 | 1.57 | 0.00 | 96 | 1011.6 |
| 20260508051505 | 10 | 0 | 0.0 | 0.0 | 0.00 | 1.57 | 0.00 | 96 | 1011.7 |
| 20260508050026 | 10 | 0 | 0.0 | 0.0 | 0.00 | 1.57 | 0.00 | 96 | 1011.5 |
| 20260508044504 | 10 | 0 | 0.0 | 0.0 | 0.00 | 1.57 | 0.00 | 96 | 1011.4 |
| 20260508043005 | 10 | 0 | 0.0 | 0.0 | 0.00 | 1.57 | 0.00 | 96 | 1011.4 |
| 20260508041505 | 10 | 0 | 0.0 | 0.0 | 0.00 | 1.57 | 0.00 | 96 | 1011.1 |
| 20260508040006 | 10 | 127 | 0.0 | 1.6 | 0.00 | 1.57 | 0.00 | 95 | 1011.0 |
| 20260508034505 | 11 | 0 | 0.0 | 0.0 | 0.00 | 1.57 | 1.57 | 95 | 1010.8 |
| 20260508033005 | 11 | 143 | 0.0 | 1.6 | 0.00 | 1.57 | 1.57 | 95 | 1010.6 |
| 20260508031506 | 11 | 0 | 0.0 | 0.0 | 0.00 | 1.57 | 1.57 | 95 | 1010.6 |
| 20260508030005 | 11 | 0 | 0.0 | 0.0 | 0.00 | 1.57 | 1.57 | 95 | 1010.7 |
| 20260508024505 | 11 | 0 | 0.0 | 0.0 | 0.00 | 1.57 | 1.57 | 95 | 1010.6 |
| 20260508023004 | 11 | 0 | 0.0 | 0.0 | 0.00 | 1.57 | 1.57 | 95 | 1010.7 |
| 20260508021526 | 11 | 0 | 0.0 | 0.0 | 0.00 | 1.57 | 1.57 | 95 | 1010.8 |
| 20260508020005 | 11 | 0 | 0.0 | 0.0 | 0.00 | 1.57 | 1.57 | 95 | 1010.2 |
| 20260508014526 | 11 | 117 | 0.0 | 1.6 | 0.00 | 1.57 | 1.57 | 95 | 1010.2 |
| 20260508013005 | 11 | 0 | 0.0 | 0.0 | 0.00 | 1.57 | 1.57 | 95 | 1010.2 |
| 20260508011504 | 11 | 91 | 0.0 | 1.6 | 0.00 | 1.57 | 1.57 | 95 | 1009.9 |
| 20260508010005 | 11 | 0 | 0.0 | 0.0 | 0.00 | 1.57 | 1.57 | 94 | 1010.0 |